Location: Kershaw
(34.5481°N, 80.5823°W)
Time: 04:03:17
(UTC+00:00)

N. Korean satellite - Visible Passes

Search period start: 16 August 2022 00:00
Search period end: 26 August 2022 00:00
Orbit: 433 x 470 km, 97.3° (Epoch: 15 August)

Date Brightness Start Highest point End Pass type
(mag) Time Alt. Az. Time Alt. Az. Time Alt. Az.
16 Aug 7.8 10:14:02 10° NNE 10:17:25 43° E 10:20:45 10° S visible
17 Aug 9.6 09:40:45 10° ENE 09:42:44 14° E 09:44:42 10° SE visible
19 Aug 8.6 10:03:19 10° NE 10:06:25 30° E 10:09:31 10° SSE visible
22 Aug 9.2 09:52:31 10° NE 09:55:13 21° E 09:57:53 10° SSE visible
24 Aug 7.7 10:15:17 10° NNE 10:18:38 44° E 10:21:56 10° S visible
25 Aug 9.6 09:41:47 10° ENE 09:43:46 15° E 09:45:45 10° SE visible
